This demonstration page uses our WeatherBlox Daily Observations layout. Learn more.

Left ArrowRight Arrow

Hourly Observations for December 5, 2021

Temp ( °F °C ) Dew Point ( °F °C ) Humidity (%) Winds ( mph kmh ) Pressure ( in mb ) Visibility ( mi km ) Precip ( " mm )
12:59 am 00:59 Mostly Cloudy 45 7.2 42 5.6 90 90 Calm 30.24 1024 10 16 0.00 0.00
1:59 am 01:59 Mostly Cloudy 45 7.2 41 5 86 86 Calm 30.25 1025 10 16 0.00 0.00
2:59 am 02:59 Partly Cloudy with Mist and Fog 44 6.7 41 5 89 89 Calm 30.27 1025 6 10 0.00 0.00
3:59 am 03:59 Partly Cloudy with Mist and Fog 44 6.7 42 5.6 93 93 NNE 5 7 30.27 1025 6 10 0.00 0.00
4:59 am 04:59 Partly Cloudy 48 8.9 45 7.2 89 89 NNE 6 9 30.28 1026 7 11 0.00 0.00
5:59 am 05:59 Partly Cloudy 50 10 45 7.2 83 83 NE 9 15 30.31 1026 10 16 0.00 0.00
6:59 am 06:59 Partly Cloudy 49 9.4 40 4.4 71 71 NE 8 13 30.32 1027 10 16 0.00 0.00
7:59 am 07:59 Partly Cloudy 50 10 39 3.9 66 66 ENE 10 17 30.34 1027 10 16 0.00 0.00
8:59 am 08:59 Partly Cloudy 53 11.7 42 5.6 66 66 ENE 14 22 30.35 1028 10 16 0.00 0.00
9:59 am 09:59 Mostly Cloudy 54 12.2 43 6.1 67 67 ENE 10 17 30.36 1028 10 16 0.00 0.00
10:59 am 10:59 Mostly Cloudy 56 13.3 42 5.6 60 60 NE 14 22 30.35 1028 10 16 0.00 0.00
11:59 am 11:59 Sunny 57 13.9 44 6.7 62 62 ENE 10 17 30.32 1027 10 16 0.00 0.00
12:59 pm 12:59 Mostly Cloudy 58 14.4 43 6.1 58 58 ENE 13 20 30.30 1026 10 16 0.00 0.00
1:59 pm 13:59 Mostly Cloudy 57 13.9 43 6.1 60 60 E 14 22 30.28 1025 10 16 0.00 0.00
2:59 pm 14:59 Cloudy 56 13.3 45 7.2 67 67 NE 8 13 30.26 1025 10 16 0.00 0.00
3:59 pm 15:59 Mostly Cloudy 55 12.8 45 7.2 69 69 ENE 8 13 30.26 1025 10 16 0.00 0.00
4:59 pm 16:59 Cloudy 54 12.2 44 6.7 69 69 NE 7 11 30.24 1024 10 16 0.00 0.00
5:59 pm 17:59 Partly Cloudy 53 11.7 45 7.2 74 74 NE 8 13 30.22 1023 10 16 0.00 0.00
6:46 pm 18:46 Mostly Cloudy 53 11.7 45 7.2 74 74 NE 8 13 30.21 1023 10 16 0.00 0.00
6:59 pm 18:59 Mostly Cloudy 53 11.7 45 7.2 74 74 ENE 8 13 30.20 1023 10 16 0.00 0.00
7:42 pm 19:42 Cloudy 53 11.7 47 8.3 80 80 N 3 6 30.20 1023 10 16 0.00 0.00
7:59 pm 19:59 Cloudy 53 11.7 47 8.3 80 80 NE 5 7 30.19 1022 10 16 0.00 0.00
8:06 pm 20:06 Partly Cloudy 53 11.7 46 7.8 77 77 NE 5 7 30.19 1022 10 16 0.00 0.00
8:59 pm 20:59 Partly Cloudy 51 10.6 46 7.8 83 83 NE 5 7 30.18 1022 10 16 0.00 0.00
9:59 pm 21:59 Mostly Clear 50 10 45 7.2 83 83 NW 3 6 30.16 1021 10 16 0.00 0.00
10:14 pm 22:14 Mostly Cloudy 50 10 45 7.2 83 83 WNW 3 6 30.16 1021 10 16 0.00 0.00
10:59 pm 22:59 Cloudy 52 11.1 45 7.2 77 77 W 7 11 30.16 1021 10 16 0.00 0.00
11:36 pm 23:36 Cloudy 52 11.1 44 6.7 75 75 W 7 11 30.15 1021 10 16 0.00 0.00
11:59 pm 23:59 Cloudy 52 11.1 44 6.7 75 75 W 6 9 30.15 1021 10 16 0.00 0.00

Powered by AerisWeather